• Join FlightAware (Why Join?)
  • Login
  • US Flag 
03:08AM EST


 

Airport Tracker/Info


-or-


 

Live Flight TrackerFlight Track Log ✈ LYM134 ✈ 18-May-2013 ✈ KDEN - KGCK

Flight Track Log - Related Links

Times and Time Zones

All times are in EDT time to prevent confusion due to time zone crossing. See the LYM134 flight status page for this flight to view local times or setup timezone preferences in your user account.

Time Position Orientation Groundspeed Altitude Reporting Facility
EDT Latitude Longitude Course Direction KTS MPH feet Rate Location/Type
09:03AM 39.8667 -104.5833 113° Southeast 162 186 7,400  Level Denver TRACON
09:04AM 39.8500 -104.5333 113° Southeast 181 208 9,000 1,109 Climbing Denver TRACON
09:05AM 39.8258 -104.4919 127° Southeast 206 237 9,100 710 Climbing Denver Center
09:06AM 39.7931 -104.4133 118° Southeast 244 281 10,100 992 Climbing Denver Center
09:07AM 39.7642 -104.3378 116° Southeast 237 273 11,100 1,041 Climbing Denver Center
09:08AM 39.7386 -104.2603 113° Southeast 235 270 12,200 934 Climbing Denver Center
09:09AM 39.7181 -104.1783 108° East 240 276 13,000 446 Climbing Denver Center
09:10AM 39.6942 -104.0919 110° East 254 292 13,100 50 Climbing Denver Center
09:11AM 39.6647 -104.0017 113° Southeast 270 311 13,100 246 Level Denver Center
09:12AM 39.6314 -103.9036 114° Southeast 275 316 13,600 843 Climbing Denver Center
09:13AM 39.6128 -103.8189 106° East 247 284 14,800 1,140 Climbing Denver Center
09:14AM 39.5958 -103.7342 105° East 242 278 15,900 934 Climbing Denver Center
09:15AM 39.5794 -103.6547 105° East 240 276 16,700 787 Climbing Denver Center
09:16AM 39.5639 -103.5753 104° East 238 274 17,500 893 Climbing Denver Center
09:17AM 39.5436 -103.4808 106° East 244 281 18,500 942 Climbing Denver Center
09:18AM 39.5250 -103.4017 107° East 240 276 19,400 896 Climbing Denver Center
09:19AM 39.4947 -103.3014 111° Southeast 234 269 20,500 722 Climbing Denver Center
09:20AM 39.4714 -103.2233 111° Southeast 240 276 21,000 298 Climbing Denver Center
09:21AM 39.4467 -103.1400 111° Southeast 254 292 21,100  Climbing Denver Center
09:22AM 39.4122 -103.0411 114° Southeast 269 310 21,000  Descending Denver Center
09:23AM 39.3778 -102.9403 114° Southeast 274 315 21,100  Climbing Denver Center
09:24AM 39.3558 -102.8467 107° East 277 319 21,000 -50 Descending Denver Center
09:25AM 39.3286 -102.7414 108° East 282 325 21,000  Level Denver Center
09:26AM 39.3064 -102.6508 108° East 284 327 21,000  Level Denver Center
09:27AM 39.2811 -102.5439 107° East 279 321 21,000  Level Denver Center
09:28AM 39.2564 -102.4511 109° East 285 328 21,000 50 Level Denver Center
09:29AM 39.2364 -102.3581 105° East 282 325 21,100 50 Climbing Denver Center
09:30AM 39.2083 -102.2508 109° East 284 327 21,100 -49 Level Denver Center
09:31AM 39.1808 -102.1633 112° Southeast 278 320 21,000 -49 Descending Denver Center
09:32AM 39.1503 -102.0764 114° Southeast 278 320 21,000  Level Denver Center
09:33AM 39.1033 -101.9869 124° Southeast 275 316 21,000 50 Level Denver Center
09:34AM 39.0572 -101.9178 131° Southeast 269 310 21,100  Climbing Denver Center
09:35AM 39.0072 -101.8531 135° Southeast 267 307 21,000 -49 Descending Denver Center
09:36AM 38.9481 -101.7814 137° Southeast 264 304 21,000 49 Level Denver Center
09:37AM 38.8972 -101.7178 136° Southeast 266 306 21,100  Climbing Denver Center
09:38AM 38.8425 -101.6619 142° Southeast 264 304 21,000 -397 Descending Denver Center
09:39AM 38.7797 -101.5914 139° Southeast 267 307 20,300 -942 Descending Denver Center
09:40AM 38.7208 -101.5300 141° Southeast 281 323 19,100 -1,180 Descending Denver Center
09:41AM 38.6625 -101.4611 137° Southeast 294 338 17,900 -1,180 Descending Denver Center
09:43AM 38.6011 -101.3983 141° Southeast 297 342 16,700 -1,328 Descending Denver Center
09:44AM 38.5286 -101.3242 141° Southeast 298 343 15,200 -1,426 Descending Denver Center
09:45AM 38.4675 -101.2586 140° Southeast 300 345 13,800 -1,328 Descending Denver Center
09:46AM 38.4075 -101.1658 130° Southeast 300 345 12,500 -1,131 Descending Denver Center
09:47AM 38.3564 -101.0886 130° Southeast 299 344 11,500 -1,230 Descending Denver Center
09:48AM 38.2967 -101.0014 131° Southeast 296 341 10,000 -2,182 Descending Denver Center
09:49AM 38.2503 -100.9275 129° Southeast 287 330 7,100 -2,380 Descending Denver Center
09:50AM 38.2033 -100.8564 130° Southeast 280 322 5,200 -1,033 Descending Denver Center
09:51AM 38.1589 -100.7847 128° Southeast 250 288 5,000 -98 Descending Denver Center
09:52AM 38.1325 -100.7314 122° Southeast 209 241 5,000  Level Denver Center
09:52AM 38.1206 -100.7172 137° Southeast 202 232 5,000 -209 Level Kansas City Center
09:53AM 38.0683 -100.7033 168° South 177 204 4,700 -341 Descending Kansas City Center
09:54AM 38.0294 -100.7050 182° South 159 183 4,300 -393 Descending Kansas City Center
09:55AM 37.9911 -100.7144 191° South 135 155 3,900 -439 Descending Kansas City Center
09:56AM 37.9600 -100.7244 194° South 126 145 3,400 -484 Descending Kansas City Center